Weather in Fershampenuaz

Russia / Chelyabinsk Oblast     53°31′17″N   59°49′19″E
temp.,
°C
wind,
m/s
gust,
m/s
humid.,
%
clouds,
%
prec.,
mm/h
press.,
hPa
HPBL,
m
26 january, tue
tue2623:00−5wsw5109312 0.0 1035168
02:00−1sw5119198 0.0 1035490
05:00−3sw6129191 0.0 1034348
08:00−6sw5109139 0.0 1034199
11:00−5sw5109064 0.0 1034237
14:00−4sw61088100 0.0 1034265
17:00−5sw599099 0.0 1033192
20:00−5sw51189100 0.0 1034207
27 january, wed
wed2723:00−6sw51087100 0.0 1033191
02:00−6sw61190100 0.0 1033213
05:00−7sw61193100 0.0 1034203
08:00−6sw5995100 0.0 1033196
11:00−5sw61194100 0.0 1033278
14:00−3sw5992100 0.0 1033346
17:00−4sw61093100 0.0 1032240
20:00−4sw61194100 0.0 1033257
28 january, thu
thu2823:00−5sw6119681 0.0 1032270
02:00−7ssw61194100 0.0 1032225
05:00−8sw6129199 0.0 1031233
08:00−9sw61290100 0.0 1031205
11:00−8sw61188100 0.0 1030233
14:00−7sw61186100 0.0 1028254
17:00−8sw61185100 0.0 1028203
20:00−9sw61084100 0.0 1028166
29 january, fri
fri2923:00−11ssw4786100 0.0 1028129
02:00−11sw4786100 0.0 1028132
05:00−12ssw4786100 0.0 1027123
08:00−13ssw4785100 0.0 1026103
11:00−12ssw3789100 0.0 1026161
14:00−9ssw3689100 0.0 1024257
17:00−10sse2390100 0.0 102223
20:00−10se3591100 0.0 1021130
30 january, sat
sat3023:00−10sse41092100 0.1 1020275
02:00−9sse3895100 0.0 1018212
05:00−9s41191100 0.1 1016337
08:00−6ssw61292100 0.0 1014413
11:00−3ssw61193100 0.1 1014447
14:00−2ssw599588 0.0 1014368
17:00−5ssw349786 0.0 101486
20:00−7sw2297100 0.0 101421